Greenville, ME

4:56 AM EDT on October 17, 2017 (GMT -0400)
Greenville

Weather History for KGNR - March, 2013

Change the Weather History Date:

Saturday, March 2, 2013

  Actual Average (KMLT) Record (KMLT)
Temperature  
Mean Temperature 28 °F -  
Max Temperature 30 °F 30 °F 50 °F (1954)
Min Temperature 25 °F 9 °F -32 °F (1920)
Degree Days  
Heating Degree Days 38    
Moisture  
Dew Point 26 °F    
Average Humidity 92    
Maximum Humidity 100    
Minimum Humidity 85    
Precipitation  
Precipitation 0.17 in - - ()
Sea Level Pressure  
Sea Level Pressure 29.61 in    
Wind  
Wind Speed 9 mph (NNW)    
Max Wind Speed 13 mph    
Max Gust Speed 20 mph    
Averages and records for this station are not official NWS values.
T = Trace of Precipitation, MM = Missing Value Source: NWS Daily Summary

Daily Weather History Graph

Daily Weather History Graph

Search for Another Location

Airport or City:

Trip Planner

Search our weather history database for the weather conditions in past years. The results will help you decide how hot, cold, wet, or windy it might be!

Date:

Astronomy

Mar. 02, 2013 Rise Set
Actual Time 6:14 AM EST 5:27 PM EST
Civil Twilight 5:44 AM EST 5:56 PM EST
Nautical Twilight 5:10 AM EST 6:30 PM EST
Astronomical Twilight 4:36 AM EST 7:05 PM EST
Moon 11:21 PM EST (3/2) 8:23 AM EST (3/2)
Length of Visible Light 12h 11m
Length of Day
11h 12m
Waning Gibbous, 74% of the Moon is Illuminated
Mar 2
Waning Gibbous
Mar 4
Last Quarter
Mar 11
New
Mar 19
First Quarter
Mar 27
Full

Hourly Weather History & Observations

Time (EST) Temp. Windchill Dew Point Humidity Pressure Visibility Wind Dir Wind Speed Gust Speed Precip Events Conditions
12:56 AM 26.1 °F 17.6 °F 24.1 °F 92% 29.61 in - NNW 8.1 mph - N/A   Unknown
1:56 AM 26.1 °F 20.5 °F 23.0 °F 88% 29.60 in - North 4.6 mph - N/A   Unknown
2:56 AM 26.1 °F 16.2 °F 23.0 °F 88% 29.60 in - NNW 10.4 mph - N/A   Unknown
3:56 AM 25.0 °F 14.8 °F 23.0 °F 92% 29.60 in - NW 10.4 mph 16.1 mph N/A   Unknown
4:56 AM 25.0 °F 16.3 °F 23.0 °F 92% 29.60 in - NNW 8.1 mph - N/A   Unknown
5:56 AM 25.0 °F 13.6 °F 21.9 °F 88% 29.60 in - NNW 12.7 mph 19.6 mph N/A   Unknown
6:56 AM 25.0 °F 14.2 °F 21.9 °F 88% 29.61 in - NNW 11.5 mph 16.1 mph N/A   Unknown
7:56 AM 25.0 °F 14.8 °F 23.0 °F 92% 29.61 in - NNW 10.4 mph 18.4 mph 0.01 in   Unknown
8:56 AM 26.1 °F 15.0 °F 23.0 °F 88% 29.61 in - NNW 12.7 mph 18.4 mph 0.03 in   Unknown
9:56 AM 27.0 °F 16.7 °F 24.1 °F 89% 29.61 in - NW 11.5 mph - 0.01 in   Unknown
10:56 AM 28.9 °F 19.8 °F 25.0 °F 85% 29.60 in - NW 10.4 mph 16.1 mph 0.01 in   Unknown
11:56 AM 28.9 °F 19.2 °F 26.1 °F 89% 29.60 in - NNW 11.5 mph - N/A   Unknown
12:56 PM 30.9 °F 24.3 °F 27.0 °F 85% 29.59 in - Variable 6.9 mph 16.1 mph N/A   Unknown
1:56 PM 30.9 °F 22.2 °F 28.0 °F 89% 29.60 in - NW 10.4 mph 16.1 mph 0.01 in   Unknown
2:56 PM 30.9 °F 21.7 °F 28.9 °F 92% 29.59 in - NNW 11.5 mph - 0.03 in   Unknown
3:56 PM 30.9 °F 23.5 °F 30.0 °F 96% 29.60 in - NW 8.1 mph 16.1 mph 0.01 in   Unknown
4:56 PM 30.9 °F 22.8 °F 30.0 °F 96% 29.61 in - NW 9.2 mph - 0.01 in   Unknown
5:56 PM 30.9 °F 23.5 °F 30.0 °F 96% 29.62 in - NW 8.1 mph - 0.02 in   Unknown
6:56 PM 30.0 °F 24.1 °F 30.0 °F 100% 29.63 in - NW 5.8 mph - 0.01 in   Unknown
7:56 PM 30.0 °F 21.7 °F 30.0 °F 100% 29.62 in - NNW 9.2 mph - 0.01 in   Unknown
8:56 PM 30.9 °F 27.5 °F 30.0 °F 96% 29.62 in - NW 3.5 mph - 0.01 in   Unknown
9:56 PM 30.9 °F 22.8 °F 30.0 °F 96% 29.61 in - NNW 9.2 mph - N/A   Unknown
10:56 PM 30.9 °F 24.3 °F 30.9 °F 100% 29.60 in - NNW 6.9 mph - N/A   Unknown
11:56 PM 30.9 °F 23.5 °F 30.0 °F 96% 29.59 in - NNW 8.1 mph - N/A   Unknown